User: anonymous   Login
Location: Boca do Mato
(22.9085°S, 43.2930°W)
Time: 07:50:34
(UTC+00:00)
Language:

Cosmos 1544 Rocket - Orbit

View from above orbital plane
View from above orbital plane
View from above satellite
View from above satellite

Ground track
Ground track

The orbit data is extracted from the following two-line orbital elements,

1 14820U 84027B   20272.83029158 +.00000107 +00000-0 +99738-5 0  9994
2 14820 082.5409 304.6517 0020146 064.4562 295.8733 14.83669834952747
Epoch (UTC): 28 September 2020 19:55:37
Eccentricity: 0.0020146
inclination: 82.5409°
perigee height: 603 km
apogee height: 632 km
right ascension of ascending node: 304.6517°
argument of perigee: 64.4562°
revolutions per day: 14.83669834
mean anomaly at epoch: 295.8733°
orbit number at epoch: 95274

The dashed part of the orbit path shows where the satellite is in the earth's shadow,  

DLR